TimeCST,TemperatureF,Dew PointF,Humidity,Sea Level PressureIn,VisibilityMPH,Wind Direction,Wind SpeedMPH,Gust SpeedMPH,PrecipitationIn,Events,Conditions,WindDirDegrees,DateUTC
12:13 AM,6.8,1.4,79,30.09,7.0,NNE,10.4,-,N/A,Snow,Light Snow,30,2013-02-07 06:13:00
12:34 AM,6.8,3.2,85,30.10,7.0,NNE,9.2,-,N/A,Snow,Light Snow,30,2013-02-07 06:34:00
12:54 AM,8.6,3.2,79,30.10,7.0,NNE,9.2,-,N/A,Snow,Light Snow,30,2013-02-07 06:54:00
1:14 AM,8.6,3.2,79,30.10,7.0,NNE,8.1,-,N/A,Snow,Light Snow,30,2013-02-07 07:14:00
1:34 AM,8.6,3.2,79,30.10,7.0,NNE,9.2,-,N/A,Snow,Light Snow,20,2013-02-07 07:34:00
1:54 AM,8.6,3.2,79,30.11,7.0,NNE,9.2,-,N/A,Snow,Light Snow,20,2013-02-07 07:54:00
2:13 AM,8.6,3.2,79,30.11,7.0,NNE,8.1,-,N/A,Snow,Light Snow,20,2013-02-07 08:13:00
2:34 AM,8.6,3.2,79,30.11,7.0,NNE,9.2,-,N/A,Snow,Light Snow,30,2013-02-07 08:34:00
2:53 AM,8.6,3.2,79,30.11,7.0,NNE,9.2,-,N/A,Snow,Light Snow,20,2013-02-07 08:53:00
3:13 AM,8.6,3.2,79,30.11,7.0,NNE,11.5,-,N/A,Snow,Light Snow,20,2013-02-07 09:13:00
3:34 AM,8.6,3.2,79,30.11,7.0,NNE,6.9,-,N/A,Snow,Light Snow,20,2013-02-07 09:34:00
3:53 AM,8.6,3.2,79,30.11,5.0,NNE,6.9,-,N/A,Snow,Light Snow,20,2013-02-07 09:53:00
4:13 AM,8.6,3.2,79,30.11,5.0,NNE,10.4,-,N/A,Snow,Light Snow,20,2013-02-07 10:13:00
4:34 AM,8.6,3.2,79,30.12,5.0,NNE,9.2,-,N/A,Snow,Light Snow,20,2013-02-07 10:34:00
4:54 AM,8.6,3.2,79,30.12,7.0,NNE,10.4,-,N/A,Snow,Light Snow,20,2013-02-07 10:54:00
5:14 AM,8.6,3.2,79,30.12,7.0,NNE,10.4,-,N/A,Snow,Light Snow,20,2013-02-07 11:14:00
5:33 AM,8.6,3.2,79,30.12,5.0,NNE,11.5,17.3,N/A,Snow,Light Snow,20,2013-02-07 11:33:00
5:53 AM,8.6,3.2,79,30.12,4.0,North,9.2,-,N/A,Snow,Light Snow,10,2013-02-07 11:53:00
6:13 AM,8.6,3.2,79,30.13,4.0,North,12.7,-,N/A,Snow,Light Snow,10,2013-02-07 12:13:00
6:34 AM,8.6,3.2,79,30.13,3.0,North,9.2,-,N/A,Snow,Light Snow,10,2013-02-07 12:34:00
6:53 AM,6.8,1.4,79,30.13,4.0,North,10.4,-,N/A,Snow,Light Snow,10,2013-02-07 12:53:00
7:13 AM,6.8,1.4,79,30.13,3.0,North,10.4,-,N/A,Snow,Light Snow,10,2013-02-07 13:13:00
7:33 AM,6.8,1.4,79,30.13,4.0,North,9.2,-,N/A,Snow,Light Snow,10,2013-02-07 13:33:00
7:53 AM,8.6,3.2,79,30.14,4.0,NNE,10.4,-,N/A,Snow,Light Snow,20,2013-02-07 13:53:00
8:14 AM,8.6,3.2,79,30.15,3.0,NNE,8.1,-,N/A,Snow,Light Snow,20,2013-02-07 14:14:00
8:34 AM,8.6,3.2,79,30.16,3.0,NNE,8.1,-,N/A,Snow,Light Snow,30,2013-02-07 14:34:00
8:54 AM,8.6,3.2,79,30.17,3.0,NNE,4.6,-,N/A,Snow,Light Snow,20,2013-02-07 14:54:00
9:14 AM,8.6,3.2,79,30.18,2.5,NNE,8.1,-,N/A,Snow,Light Snow,20,2013-02-07 15:14:00
9:33 AM,8.6,3.2,79,30.17,2.0,NNE,9.2,-,N/A,Snow,Light Snow,20,2013-02-07 15:33:00
9:54 AM,10.4,3.2,73,30.17,2.5,NNE,11.5,-,N/A,Snow,Light Snow,30,2013-02-07 15:54:00
10:13 AM,10.4,5.0,79,30.17,7.0,NNE,10.4,-,N/A,Snow,Light Snow,30,2013-02-07 16:13:00
10:33 AM,10.4,5.0,79,30.17,7.0,NE,6.9,-,N/A,Snow,Light Snow,40,2013-02-07 16:33:00
10:54 AM,12.2,5.0,73,30.18,7.0,NNE,6.9,-,N/A,Snow,Light Snow,20,2013-02-07 16:54:00
11:13 AM,12.2,6.8,79,30.19,10.0,NNE,10.4,-,N/A,Snow,Light Snow,20,2013-02-07 17:13:00
11:34 AM,14.0,6.8,73,30.19,10.0,North,9.2,-,N/A,Snow,Light Snow,360,2013-02-07 17:34:00
11:54 AM,15.8,8.6,73,30.18,10.0,NE,5.8,-,N/A,Snow,Light Snow,50,2013-02-07 17:54:00
12:13 PM,15.8,8.6,73,30.18,10.0,NE,5.8,-,N/A,Snow,Light Snow,40,2013-02-07 18:13:00
12:34 PM,15.8,8.6,73,30.18,10.0,NE,8.1,-,N/A,Snow,Light Snow,40,2013-02-07 18:34:00
12:53 PM,15.8,8.6,73,30.18,10.0,NNE,5.8,-,N/A,Snow,Light Snow,30,2013-02-07 18:53:00
1:13 PM,15.8,8.6,73,30.18,7.0,NNE,8.1,-,N/A,Snow,Light Snow,20,2013-02-07 19:13:00
1:33 PM,15.8,6.8,68,30.18,7.0,NE,8.1,-,N/A,Snow,Light Snow,40,2013-02-07 19:33:00
1:53 PM,15.8,8.6,73,30.17,5.0,NNE,6.9,-,N/A,Snow,Light Snow,30,2013-02-07 19:53:00
2:14 PM,15.8,8.6,73,30.17,5.0,North,8.1,-,N/A,Snow,Light Snow,10,2013-02-07 20:14:00
2:34 PM,15.8,8.6,73,30.17,10.0,North,6.9,-,N/A,Snow,Light Snow,10,2013-02-07 20:34:00
2:53 PM,15.8,6.8,68,30.17,10.0,NNE,8.1,-,N/A,Snow,Light Snow,30,2013-02-07 20:53:00
3:14 PM,15.8,6.8,68,30.17,10.0,North,8.1,-,N/A,Snow,Light Snow,10,2013-02-07 21:14:00
3:34 PM,15.8,6.8,68,30.16,10.0,North,8.1,-,N/A,Snow,Light Snow,10,2013-02-07 21:34:00
3:53 PM,14.0,6.8,73,30.16,10.0,North,8.1,-,N/A,,Scattered Clouds,10,2013-02-07 21:53:00
4:14 PM,12.2,6.8,79,30.17,10.0,North,4.6,-,N/A,,Clear,360,2013-02-07 22:14:00
4:34 PM,12.2,6.8,79,30.17,10.0,North,5.8,-,N/A,,Mostly Cloudy,360,2013-02-07 22:34:00
4:54 PM,12.2,5.0,73,30.18,10.0,North,4.6,-,N/A,,Mostly Cloudy,10,2013-02-07 22:54:00
5:14 PM,10.4,3.2,73,30.19,10.0,North,5.8,-,N/A,,Mostly Cloudy,350,2013-02-07 23:14:00
5:33 PM,10.4,3.2,73,30.20,10.0,North,4.6,-,N/A,,Overcast,360,2013-02-07 23:33:00
5:54 PM,8.6,3.2,79,30.21,10.0,NNE,3.5,-,N/A,,Overcast,20,2013-02-07 23:54:00
6:13 PM,6.8,1.4,79,30.21,10.0,NNE,3.5,-,N/A,,Overcast,20,2013-02-08 00:13:00
6:34 PM,6.8,1.4,79,30.21,10.0,North,3.5,-,N/A,,Mostly Cloudy,360,2013-02-08 00:34:00
6:53 PM,5.0,1.4,85,30.21,10.0,Calm,Calm,-,N/A,,Scattered Clouds,0,2013-02-08 00:53:00
7:13 PM,5.0,-0.4,78,30.22,10.0,North,3.5,-,N/A,,Clear,350,2013-02-08 01:13:00
7:34 PM,3.2,-0.4,85,30.22,10.0,Calm,Calm,-,N/A,,Scattered Clouds,0,2013-02-08 01:34:00
7:54 PM,1.4,-2.2,85,30.22,10.0,NNW,4.6,-,N/A,,Scattered Clouds,340,2013-02-08 01:54:00
8:14 PM,1.4,-2.2,85,30.22,10.0,North,4.6,-,N/A,,Scattered Clouds,350,2013-02-08 02:14:00
8:34 PM,1.4,-2.2,85,30.22,10.0,Calm,Calm,-,N/A,,Scattered Clouds,0,2013-02-08 02:34:00
8:54 PM,1.4,-2.2,85,30.22,10.0,North,3.5,-,N/A,,Clear,350,2013-02-08 02:54:00
9:13 PM,-0.4,-5.8,78,30.23,10.0,NNW,3.5,-,N/A,,Clear,340,2013-02-08 03:13:00
9:33 PM,-0.4,-5.8,78,30.23,10.0,NNW,3.5,-,N/A,,Clear,330,2013-02-08 03:33:00
9:54 PM,-0.4,-5.8,78,30.23,10.0,NW,3.5,-,N/A,,Clear,320,2013-02-08 03:54:00
10:14 PM,-2.2,-7.6,78,30.23,10.0,NNW,3.5,-,N/A,,Scattered Clouds,330,2013-02-08 04:14:00
10:33 PM,-2.2,-7.6,78,30.23,10.0,NNW,5.8,-,N/A,,Scattered Clouds,340,2013-02-08 04:33:00
10:53 PM,-2.2,-7.6,78,30.24,10.0,NNW,6.9,-,N/A,,Scattered Clouds,340,2013-02-08 04:53:00
11:14 PM,-2.2,-7.6,78,30.24,10.0,NNW,6.9,-,N/A,,Scattered Clouds,340,2013-02-08 05:14:00
11:34 PM,-0.4,-7.6,72,30.24,10.0,NNW,9.2,-,N/A,,Scattered Clouds,340,2013-02-08 05:34:00
11:53 PM,-0.4,-7.6,72,30.24,10.0,North,8.1,-,N/A,,Clear,350,2013-02-08 05:53:00